This is the latest recevied weather packets stored in our database for station/object N3WGC-14. If no packets are shown the sender has not sent any weather packets the latest 1 day(s).
| Time | Temp. | Humidity | Pressure | Rain* | Wind** | Luminosity | Snow |
|---|---|---|---|---|---|---|---|
| 1778079338 | 17.22° C | 88% | 1010.6 hPa | 0.76 mm | - | - | - |
| 1778077537 | 17.78° C | 85% | 1010.7 hPa | 0.25 mm | - | - | - |
| 1778075736 | 18.33° C | 81% | 1011 hPa | 0 mm | - | - | - |
| 1778075436 | 18.33° C | 81% | 1011 hPa | 0 mm | - | - | - |
| 1778073635 | 18.89° C | 79% | 1010.6 hPa | 0 mm | - | - | - |
| 1778073335 | 18.89° C | 79% | 1010.6 hPa | 0 mm | - | - | - |
| 1778071834 | 18.89° C | 79% | 1010.5 hPa | 0 mm | - | - | - |
| 1778071534 | 18.89° C | 80% | 1010.6 hPa | 0 mm | - | - | - |
| 1778070033 | 18.33° C | 79% | 1010.7 hPa | 0 mm | - | - | - |
| 1778069733 | 18.89° C | 79% | 1010.7 hPa | 0 mm | - | - | - |
| 1778069433 | 18.89° C | 79% | 1010.7 hPa | 0 mm | - | - | - |
| 1778067632 | 18.33° C | 81% | 1010.5 hPa | 0 mm | - | - | - |
| 1778065801 | 18.33° C | 82% | 1010.3 hPa | 0 mm | - | - | - |
| 1778065501 | 18.33° C | 82% | 1010.2 hPa | 0 mm | - | - | - |
| 1778064300 | 18.33° C | 83% | 1010.1 hPa | 0 mm | - | - | - |
| 1778064000 | 17.78° C | 83% | 1010.1 hPa | 0 mm | - | - | - |
| 1778063700 | 17.78° C | 83% | 1010.2 hPa | 0 mm | - | - | - |
| 1778063400 | 17.78° C | 83% | 1010.2 hPa | 0 mm | - | - | - |
| 1778061899 | 18.33° C | 83% | 1010.2 hPa | 0 mm | - | - | - |
| 1778061599 | 18.33° C | 83% | 1010.2 hPa | 0 mm | - | - | - |
| 1778061299 | 18.33° C | 83% | 1010.2 hPa | 0 mm | - | - | - |
| 1778060098 | 18.33° C | 83% | 1010.2 hPa | 0 mm | - | - | - |
| 1778059798 | 18.33° C | 83% | 1010.2 hPa | 0 mm | - | - | - |
| 1778059498 | 18.33° C | 83% | 1010.1 hPa | 0 mm | - | - | - |
| 1778057997 | 18.33° C | 83% | 1010.3 hPa | 0 mm | - | - | - |
* Rain latest hour (hover to see other rain measurements)
** Current wind speed in m/s (hover to see current wind gust speed)